Regional Weather Roundup
Issued by NWS

Home | Current Version | Previous Version | Graphics & Text | Print | Product List | Glossary On
Versions: 1 2 3 4 5 6 7 8 9 10 11 12 13 14 15 16 17 18 19 20 21 22 23 24 25 26 27 28 29 30 31 32 33 34 35 36 37 38 39 40 41 42 43 44 45 46 47 48 49 50
000
ASUS43 KTOP 190459
RWRKS

WEATHER ROUNDUP FOR KANSAS
NATIONAL WEATHER SERVICE GOODLAND KS
1200 AM CDT FRI SEP 19 2014

NOTE:  "FAIR" INDICATES FEW OR NO CLOUDS BELOW 12,000 FEET WITH NO
SIGNIFICANT WEATHER AND/OR OBSTRUCTIONS TO VISIBILITY.

KSZ001>006-013>018-027>032-041>047-190600-
NORTHWEST KANSAS

CITY           SKY/WX    TMP DP  RH WIND       PRES   REMARKS
GOODLAND       CLEAR     69  55  60 S13       29.95R
HAYS           CLEAR     72  61  68 SE10      29.94R
HILL CITY      CLEAR     69  62  78 SE7       29.91R
RUSSELL        CLEAR     68  61  78 SE17G26   29.92S
$$

KSZ061>065-074>080-084>089-190600-
SOUTHWEST KANSAS

CITY           SKY/WX    TMP DP  RH WIND       PRES   REMARKS
DODGE CITY     CLEAR     71  62  73 S12       29.98R
ELKHART          N/A     63  56  78 S8          N/A
GARDEN CITY    CLEAR     64  58  80 S6        29.97R
GREAT BEND     CLEAR     70  57  64 SE16G22   29.96R
LIBERAL        CLEAR     66  55  68 S9        30.02R
$$

KSZ066>073-081>083-090>101-190600-
SOUTHEAST KANSAS

CITY           SKY/WX    TMP DP  RH WIND       PRES   REMARKS
CHANUTE        CLEAR     66  64  93 E7        30.00S
COFFEYVILLE    CLEAR     68  63  84 E7        29.99R
HUTCHINSON     CLEAR     67  62  84 SE9       29.97S
NEWTON         CLEAR     64  57  77 SE10      30.00S
PARSONS        CLEAR     67  64  90 VRB5      30.01R
WICHITA INTL   CLEAR     69  63  81 SE10      29.97S
WICHITA JABRA  CLEAR     66  63  90 SE9       29.98S
WINFIELD       CLEAR     68  64  87 E8        29.99S
$$

KSZ007>012-019>026-033>040-048>060-102>105-190600-
NORTHEAST KANSAS

CITY           SKY/WX    TMP DP  RH WIND       PRES   REMARKS
CONCORDIA      CLOUDY    66  64  93 SE15      29.96S
EMPORIA        CLEAR     64  63  96 SE9       30.00S
LAWRENCE       FOG       56  55  97 E5        30.02S VSB 1/4
MANHATTAN      MOCLDY    67  62  84 SE6       29.98S
OLATHE IND     CLEAR     62  61  96 SE7       30.03R
OLATHE EXE     CLEAR     62  61  96 SE7       30.01F
SALINA         PTCLDY    69  65  86 SE12      29.96S
TOPEKA BILLARD CLEAR     62  61  96 CALM      30.01S FOG
TOPEKA FORBES  CLEAR     61  60  97 SE6       30.00F FOG
$$



USA.gov is the U.S. government's official web portal to all federal, state and local government web resources and services.